Location: Bazugues
(43.4465°N, 0.3432°E)
Time: 07:56:21
(UTC+00:00)

Tiangong - Visible Passes

Search period start: 08 March 2026 00:00
Search period end: 18 March 2026 00:00
Orbit: 381 x 391 km, 41.5° (Epoch: 8 March)

Date Brightness Start Highest point End Pass type
(mag) Time Alt. Az. Time Alt. Az. Time Alt. Az.
10 Mar 0.4 05:41:08 10° SSW 05:43:21 17° SSE 05:45:34 10° ESE visible
11 Mar 0.7 04:43:15 10° SSE 04:44:13 11° SSE 04:45:12 10° SE visible
12 Mar -0.4 05:18:30 10° SW 05:21:14 26° SSE 05:23:59 10° E visible
13 Mar 0.1 04:21:57 18° SSE 04:21:57 18° SSE 04:24:11 10° ESE visible
14 Mar -1.1 04:57:31 23° SW 04:58:57 37° SSE 05:01:56 10° E visible
15 Mar 0.2 04:00:45 20° ESE 04:00:45 20° ESE 04:02:14 10° E visible
15 Mar -1.8 05:32:58 10° WSW 05:36:04 58° S 05:39:13 10° E visible
16 Mar -1.7 04:36:06 45° SSW 04:36:30 49° S 04:39:36 10° E visible
17 Mar 0.8 03:39:10 15° E 03:39:10 15° E 03:39:53 10° E visible
17 Mar -1.9 05:11:23 18° WSW 05:13:33 61° S 05:16:42 10° E visible
